User: anonymous   Login
Location: Columbia
(38.9520°N, 92.3340°W)
Time: 02:56:06
(UTC-05:00)
Language:

SJ-11-01 - Orbit

View from above orbital plane
View from above orbital plane
View from above satellite
View from above satellite

Ground track
Ground track

The orbit data is extracted from the following two-line orbital elements,

1 36088U 09061A   17228.91127903 +.00000024 +00000-0 +14613-4 0  9998
2 36088 098.1314 275.5609 0012975 077.6178 282.6469 14.59957496413506
Epoch (UTC): 16 August 2017 21:52:14
Eccentricity: 0.0012975
inclination: 98.1314°
perigee height: 684 km
apogee height: 702 km
right ascension of ascending node: 275.5609°
argument of perigee: 77.6178°
revolutions per day: 14.59957496
mean anomaly at epoch: 282.6469°
orbit number at epoch: 41350

The dashed part of the orbit path shows where the satellite is in the earth's shadow,  

DLR